(224384) = 1998 KH38 = 2005 UH197

Discovered at Kitt Peak on 2005-10-24 by Spacewatch.

Orbit

Orbit type: Main Belt

Note: WebGL enabled browser required.

epoch2023-09-13.0
epoch JD2460200.5
perihelion date2022-07-28.31481
perihelion JD2459788.81481
argument of perihelion (°)8.01090
ascending node (°)215.06238
inclination (°)5.63543
eccentricity0.2487508
perihelion distance (AU)2.1565652
Tisserand w.r.t. Jupiter3.2
ΔV w.r.t. Earth (km/sec)9.5
semimajor axis (AU)2.8706389
mean anomaly (°)83.42597
mean daily motion (°/day)0.20264510
aphelion distance (AU)3.585
period (years)4.86
P-vector [x]-0.73086783
P-vector [y]-0.63151667
P-vector [z]-0.25888010
Q-vector [x]0.68018374
Q-vector [y]-0.70528881
Q-vector [z]-0.19979433
absolute magnitude15.67
phase slope0.15
uncertainty0
referenceMPEC 2023-X132
observations used668
oppositions18
arc length (days)11155
first opposition used1993
last opposition used2023
residual rms (arc-secs)0.66
perturbers coarse indicatorM-v
perturbers precise indicator003Ek
first observation date used1993-04-25.0
last observation date used2023-11-09.0
computer nameMPCLINUX
JD of orbit computation2456966.834202
perihelion JD uncertainty (days)6.6988E-05
argument of perihelion uncertainty (°)5.2111E-05
ascending node uncertainty (°)5.0851E-05
inclination uncertainty (°)5.2100E-06
eccentricity uncertainty 4.1627E-08
perihelion distance uncertainty (AU)1.2136E-07
Minimum Orbit Intersection Distances (in AU)
for orbit epoch: 2460200.5, reference: E2023-XD2
Mercury1.70452
Venus1.43326
Earth1.14724
Mars0.5692
Jupiter1.39152
Saturn5.56857
Uranus15.7418
Neptune26.2633

Observations

686 total observations over interval: 1993 04 25.25136 – 2023 11 09.139704
These data are available for download (format description).

Date (UT) J2000 RA J2000 Dec Magn Location Ref
1993 04 25.25136 14 06 22.94 -13 01 45.2 17.9 V 691 – Steward Observatory, Kitt Peak-Spacewatch MPS 155367
1993 04 25.28396 14 06 21.47 -13 01 30.2   691 – Steward Observatory, Kitt Peak-Spacewatch MPS 155367
1993 04 25.31658 14 06 20.05 -13 01 15.1   691 – Steward Observatory, Kitt Peak-Spacewatch MPS 155367
1998 05 22.27444 16 16 08.39 -16 18 36.8 18.4   704 – Lincoln Laboratory ETS, New Mexico MPS 1507
1998 05 22.29393 16 16 07.31 -16 18 28.9 18.4   704 – Lincoln Laboratory ETS, New Mexico MPS 1507
1998 05 22.31351 16 16 06.43 -16 18 23.0 18.5   704 – Lincoln Laboratory ETS, New Mexico MPS 1507
1998 05 22.33316 16 16 05.42 -16 18 16.2 18.7   704 – Lincoln Laboratory ETS, New Mexico MPS 1507
1998 05 24.26341 16 14 35.44 -16 07 39.6   704 – Lincoln Laboratory ETS, New Mexico MPS 1507
1998 05 24.28300 16 14 34.50 -16 07 34.3 18.6   704 – Lincoln Laboratory ETS, New Mexico MPS 1507
1998 05 24.30275 16 14 33.39 -16 07 26.9 18.4   704 – Lincoln Laboratory ETS, New Mexico MPS 1507
1998 05 24.32259 16 14 32.41 -16 07 20.4 18.9   704 – Lincoln Laboratory ETS, New Mexico MPS 1507
1998 05 24.34248 16 14 31.48 -16 07 14.9 18.9   704 – Lincoln Laboratory ETS, New Mexico MPS 1507
1999 10 16.352290 23 24 51.493 +01 00 41.75 20.88 V 645 – Apache Point-Sloan Digital Sky Survey MPS 155367
1999 10 16.355762 23 24 51.390 +01 00 40.73 21.69   645 – Apache Point-Sloan Digital Sky Survey MPS 155367
1999 11 03.13588 23 19 12.00 -00 13 17.5 21.6 V 691 – Steward Observatory, Kitt Peak-Spacewatch MPS 155367
1999 11 03.15699 23 19 11.81 -00 13 21.1 21.4 V 691 – Steward Observatory, Kitt Peak-Spacewatch MPS 155367
1999 11 03.17803 23 19 11.59 -00 13 24.6 22.1 V 691 – Steward Observatory, Kitt Peak-Spacewatch MPS 155367
2003 06 26.27979 17 33 06.51 -15 17 57.0 19.0   704 – Lincoln Laboratory ETS, New Mexico MPS 155367
2003 06 26.29002 17 33 06.01 -15 17 56.7 18.8   704 – Lincoln Laboratory ETS, New Mexico MPS 155367
2003 06 26.30024 17 33 05.62 -15 17 55.6 18.7   704 – Lincoln Laboratory ETS, New Mexico MPS 155367
2003 06 26.31042 17 33 05.07 -15 17 54.1 18.7   704 – Lincoln Laboratory ETS, New Mexico MPS 155367
2005 10 24.43746 04 12 43.83 +18 29 37.6 21.0 V 691 – Steward Observatory, Kitt Peak-Spacewatch MPS 149822
2005 10 24.45491 04 12 43.22 +18 29 34.2 21.4 V 691 – Steward Observatory, Kitt Peak-Spacewatch MPS 149822
2005 10 24.47235 04 12 42.60 +18 29 31.5 21.2 V 691 – Steward Observatory, Kitt Peak-Spacewatch MPS 149822
2005 10 28.36327 04 10 21.46 +18 17 47.5 20.5 V G96 – Mt. Lemmon Survey MPS 149822
2005 10 28.37005 04 10 21.25 +18 17 46.6 20.6 V G96 – Mt. Lemmon Survey MPS 149822
2005 10 28.37692 04 10 20.96 +18 17 45.0 20.2 V G96 – Mt. Lemmon Survey MPS 149822
2005 10 28.38372 04 10 20.67 +18 17 43.6 20.6 V G96 – Mt. Lemmon Survey MPS 149822
2005 11 04.37091 04 05 30.90 +17 55 02.5 20.7 V 691 – Steward Observatory, Kitt Peak-Spacewatch MPS 155367
2005 11 04.38946 04 05 30.04 +17 54 58.6 20.8 V 691 – Steward Observatory, Kitt Peak-Spacewatch MPS 155367
2005 11 04.40685 04 05 29.25 +17 54 55.0 20.7 V 691 – Steward Observatory, Kitt Peak-Spacewatch MPS 155367
2005 11 22.10418 03 51 03.98 +16 51 45.2 20.4 V 691 – Steward Observatory, Kitt Peak-Spacewatch MPS 152273
2005 11 22.12151 03 51 03.05 +16 51 41.5 20.7 V 691 – Steward Observatory, Kitt Peak-Spacewatch MPS 152273
2005 11 22.13886 03 51 02.16 +16 51 38.3 20.6 V 691 – Steward Observatory, Kitt Peak-Spacewatch MPS 152273
2007 01 15.35806 08 43 04.97 +09 19 55.5 19.2 R 699 – Lowell Observatory-LONEOS MPS 196375
2007 01 15.38001 08 43 04.00 +09 19 57.0   699 – Lowell Observatory-LONEOS MPS 196375
2007 01 15.40197 08 43 02.82 +09 20 00.2   699 – Lowell Observatory-LONEOS MPS 196375
2007 01 15.42393 08 43 01.61 +09 20 02.3   699 – Lowell Observatory-LONEOS MPS 196375
2007 01 17.40276 08 41 23.56 +09 24 04.6 19.5 R 644 – Palomar Mountain/NEAT MPS 197081
2007 01 17.42448 08 41 22.43 +09 24 07.5 19.3 R 644 – Palomar Mountain/NEAT MPS 197081
2007 01 17.44792 08 41 21.24 +09 24 10.3 19.3 R 644 – Palomar Mountain/NEAT MPS 197081
2007 02 05.38352 08 24 20.57 +10 22 24.8 19.0 R 644 – Palomar Mountain/NEAT MPS 198727
2007 02 05.40403 08 24 19.46 +10 22 29.2 19.2 R 644 – Palomar Mountain/NEAT MPS 198727
2007 02 05.42455 08 24 18.33 +10 22 33.8 19.2 R 644 – Palomar Mountain/NEAT MPS 198727
2007 02 06.29036 08 23 32.25 +10 25 51.4 18.9 R 644 – Palomar Mountain/NEAT MPS 198727
2007 02 06.31069 08 23 31.15 +10 25 56.1 19.0 R 644 – Palomar Mountain/NEAT MPS 198727
2007 02 06.33216 08 23 29.95 +10 26 01.0 19.0 R 644 – Palomar Mountain/NEAT MPS 198727
2007 02 08.17814 08 21 52.84 +10 33 08.5 19.3 R 644 – Palomar Mountain/NEAT MPS 199500
2007 02 08.19896 08 21 51.74 +10 33 13.7 19.2 R 644 – Palomar Mountain/NEAT MPS 199500
2007 02 08.22121 08 21 50.54 +10 33 18.4 19.3 R 644 – Palomar Mountain/NEAT MPS 199500
2007 02 17.23314 08 14 31.74 +11 09 31.2 19.6 V 703 – Catalina Sky Survey MPS 200406
2007 02 17.23963 08 14 31.41 +11 09 32.5 19.8 V 703 – Catalina Sky Survey MPS 200406
2007 02 17.24609 08 14 31.12 +11 09 34.7 20.3 V 703 – Catalina Sky Survey MPS 200406
2007 02 17.25256 08 14 30.76 +11 09 36.8 19.7 V 703 – Catalina Sky Survey MPS 200406
2007 02 22.23072 08 11 04.61 +11 29 49.5 19.6   704 – Lincoln Laboratory ETS, New Mexico MPS 200406
2007 02 22.24233 08 11 04.10 +11 29 52.3 19.7   704 – Lincoln Laboratory ETS, New Mexico MPS 200406
2007 02 22.25393 08 11 03.62 +11 29 54.7 19.6   704 – Lincoln Laboratory ETS, New Mexico MPS 200406
2007 02 22.26574 08 11 03.24 +11 29 57.2 19.9   704 – Lincoln Laboratory ETS, New Mexico MPS 200406
2009 09 18.25058 00 53 36.10 +09 21 42.8 20.6 V 691 – Steward Observatory, Kitt Peak-Spacewatch MPS 295017
2009 09 18.26824 00 53 35.33 +09 21 37.6 20.7 V 691 – Steward Observatory, Kitt Peak-Spacewatch MPS 295017
2009 09 18.28590 00 53 34.61 +09 21 32.1 20.7 V 691 – Steward Observatory, Kitt Peak-Spacewatch MPS 295017
2009 10 21.25376 00 29 30.94 +06 10 54.8 20.6 V G96 – Mt. Lemmon Survey MPS 299394
2009 10 21.25867 00 29 30.76 +06 10 53.5 20.3 V G96 – Mt. Lemmon Survey MPS 299394
2009 10 21.26350 00 29 30.55 +06 10 51.7 20.6 V G96 – Mt. Lemmon Survey MPS 299394
2009 10 21.26845 00 29 30.37 +06 10 50.0 21.4 V G96 – Mt. Lemmon Survey MPS 299394
2009 10 21.29257 00 29 29.43 +06 10 41.7 20.9 V G96 – Mt. Lemmon Survey MPS 299394
2009 10 21.29765 00 29 29.18 +06 10 40.2 20.4 V G96 – Mt. Lemmon Survey MPS 299394
2009 10 21.30266 00 29 29.04 +06 10 38.6 20.6 V G96 – Mt. Lemmon Survey MPS 299394
2009 10 21.30764 00 29 28.82 +06 10 36.5 20.6 V G96 – Mt. Lemmon Survey MPS 299394
2010 10 11.477828 04 49 44.106 +19 30 51.12 21.65 w F51 – Pan-STARRS 1, Haleakala MPS 365292
2010 10 11.491805 04 49 43.944 +19 30 49.42 21.77 w F51 – Pan-STARRS 1, Haleakala MPS 365292
2010 10 11.506231 04 49 43.799 +19 30 47.84 21.61 w F51 – Pan-STARRS 1, Haleakala MPS 365292
2010 10 11.520219 04 49 43.646 +19 30 46.30 21.62 w F51 – Pan-STARRS 1, Haleakala MPS 365292
2010 11 12.27252 04 34 20.69 +18 11 34.5 21.2 V 691 – Steward Observatory, Kitt Peak-Spacewatch MPS 357278
2010 11 12.29021 04 34 19.83 +18 11 31.5 21.0 V 691 – Steward Observatory, Kitt Peak-Spacewatch MPS 357278
2010 11 12.30791 04 34 19.04 +18 11 28.6 20.6 V 691 – Steward Observatory, Kitt Peak-Spacewatch MPS 357278
2010 11 17.505882 04 30 11.915 +17 55 41.01 20.63 i F51 – Pan-STARRS 1, Haleakala MPS 365292
2010 11 17.517649 04 30 11.316 +17 55 38.60 20.70 i F51 – Pan-STARRS 1, Haleakala MPS 365292
2010 11 27.34661 04 21 49.03 +17 25 07.1 19.8 V G96 – Mt. Lemmon Survey MPS 362525
2010 11 27.35456 04 21 48.56 +17 25 05.3 19.4 V G96 – Mt. Lemmon Survey MPS 362525
2010 11 27.36258 04 21 48.16 +17 25 04.0 19.9 V G96 – Mt. Lemmon Survey MPS 362525
2010 11 27.37056 04 21 47.73 +17 25 02.3 19.6 V G96 – Mt. Lemmon Survey MPS 362525
2010 12 01.30152 04 18 21.63 +17 12 56.8 19.9 V G96 – Mt. Lemmon Survey MPS 362525
2010 12 01.30887 04 18 21.24 +17 12 55.4 19.8 V G96 – Mt. Lemmon Survey MPS 362525
2010 12 01.31632 04 18 20.84 +17 12 54.2 19.8 V G96 – Mt. Lemmon Survey MPS 362525
2010 12 01.32377 04 18 20.48 +17 12 52.7 20.0 V G96 – Mt. Lemmon Survey MPS 362525
2010 12 02.34040 04 17 27.24 +17 09 47.8 19.6 V 703 – Catalina Sky Survey MPS 362939
